SAS724 ENBR-EKVG

Flight info

Callsign SAS724
Flight time 1h 8m
Altitude 38000
Route REKLI1D REKLI DCT VALDI/M077F380 DCT ROBUR DCT
Aircraft A20N/M-SDE2E3FGHIRWXY/LB1

Departure

Time 2026-04-28 17:11
Airport Bergen Airport, Flesland (ENBR)

Arrival

Time 2026-04-28 18:19
Airport Vágar Airport (EKVG)
Time Latitude Longitude Altitude Speed Heading
2026-04-28 16:34 60.28896 5.22536 177 ft 0 kts 83°
2026-04-28 16:59 60.28896 5.22524 177 ft 3 kts 83°
2026-04-28 17:00 60.28894 5.22486 177 ft 3 kts 83°
2026-04-28 17:00 60.28891 5.22449 177 ft 3 kts 83°
2026-04-28 17:00 60.28890 5.22419 177 ft 1 kts 83°
2026-04-28 17:00 60.28890 5.22418 177 ft 0 kts 83°
2026-04-28 17:03 60.28888 5.22424 177 ft 1 kts 110°
2026-04-28 17:04 60.28830 5.22428 177 ft 10 kts 194°
2026-04-28 17:04 60.28771 5.22339 177 ft 15 kts 187°
2026-04-28 17:05 60.28525 5.22411 177 ft 21 kts 171°
2026-04-28 17:05 60.28378 5.22461 189 ft 21 kts 169°
2026-04-28 17:05 60.28247 5.22503 193 ft 13 kts 170°
2026-04-28 17:06 60.28094 5.22546 192 ft 7 kts 184°
2026-04-28 17:06 60.28062 5.22508 203 ft 5 kts 233°
2026-04-28 17:06 60.28055 5.22461 189 ft 0 kts 259°
2026-04-28 17:09 60.28050 5.22400 194 ft 8 kts 261°
2026-04-28 17:09 60.28046 5.22275 199 ft 7 kts 290°
2026-04-28 17:09 60.28085 5.22235 188 ft 2 kts 349°
2026-04-28 17:09 60.28086 5.22234 188 ft 0 kts 349°
2026-04-28 17:10 60.28169 5.22205 194 ft 41 kts 350°
2026-04-28 17:10 60.28704 5.22029 178 ft 116 kts 351°
2026-04-28 17:10 60.29685 5.21723 476 ft 150 kts 349°
2026-04-28 17:11 60.30730 5.21406 1257 ft 155 kts 349°
2026-04-28 17:11 60.31836 5.21033 1893 ft 171 kts 348°
2026-04-28 17:11 60.33111 5.20575 2190 ft 203 kts 349°
2026-04-28 17:11 60.34591 5.20052 2661 ft 229 kts 350°
2026-04-28 17:12 60.36212 5.19497 3388 ft 242 kts 350°
2026-04-28 17:12 60.37895 5.18928 4272 ft 246 kts 350°
2026-04-28 17:12 60.39600 5.18352 5171 ft 250 kts 351°
2026-04-28 17:12 60.41320 5.17771 5754 ft 252 kts 351°
2026-04-28 17:13 60.43061 5.17181 5974 ft 254 kts 350°
2026-04-28 17:13 60.44806 5.16583 5991 ft 255 kts 349°
2026-04-28 17:13 60.46490 5.15489 6205 ft 257 kts 332°
2026-04-28 17:13 60.47854 5.13137 6973 ft 261 kts 308°
2026-04-28 17:14 60.48589 5.09761 7921 ft 268 kts 283°
2026-04-28 17:14 60.48578 5.05922 8830 ft 277 kts 266°
2026-04-28 17:14 60.47990 5.02120 9680 ft 291 kts 245°
2026-04-28 17:14 60.46613 4.99021 10460 ft 308 kts 216°
2026-04-28 17:15 60.44556 4.97459 10945 ft 331 kts 186°
2026-04-28 17:15 60.42187 4.97585 11337 ft 350 kts 173°
2026-04-28 17:15 60.39721 4.98202 11930 ft 362 kts 172°
2026-04-28 17:15 60.37225 4.98843 12679 ft 370 kts 172°
2026-04-28 17:16 60.34650 4.99433 13465 ft 376 kts 175°
2026-04-28 17:16 60.32029 4.99135 14228 ft 381 kts 195°
2026-04-28 17:16 60.29618 4.96943 14902 ft 381 kts 220°
2026-04-28 17:16 60.27838 4.93086 15605 ft 373 kts 244°
2026-04-28 17:17 60.26930 4.88284 16323 ft 364 kts 265°
2026-04-28 17:17 60.26577 4.83244 17064 ft 364 kts 270°
2026-04-28 17:17 60.26327 4.78138 17798 ft 368 kts 271°
2026-04-28 17:17 60.26149 4.72977 18506 ft 368 kts 276°
2026-04-28 17:18 60.26372 4.67878 19122 ft 363 kts 288°
2026-04-28 17:18 60.27125 4.63085 19766 ft 357 kts 300°
2026-04-28 17:18 60.28227 4.58601 20391 ft 357 kts 303°
2026-04-28 17:18 60.29415 4.54172 21011 ft 360 kts 304°
2026-04-28 17:19 60.30619 4.49713 21626 ft 364 kts 304°
2026-04-28 17:19 60.31829 4.45207 22227 ft 367 kts 304°
2026-04-28 17:19 60.33050 4.40628 22816 ft 371 kts 304°
2026-04-28 17:19 60.34274 4.36012 23388 ft 374 kts 303°
2026-04-28 17:20 60.35507 4.31348 23949 ft 378 kts 303°
2026-04-28 17:20 60.36327 4.28238 24271 ft 380 kts 303°
2026-04-28 17:20 60.37994 4.21896 24891 ft 383 kts 303°
2026-04-28 17:20 60.39243 4.17128 25354 ft 386 kts 303°
2026-04-28 17:21 60.40503 4.12312 25832 ft 387 kts 303°
2026-04-28 17:21 60.41764 4.07479 26300 ft 389 kts 303°
2026-04-28 17:21 60.43013 4.02683 26688 ft 391 kts 303°
2026-04-28 17:22 60.45558 3.92858 27498 ft 397 kts 302°
2026-04-28 17:22 60.46762 3.87780 27888 ft 401 kts 300°
2026-04-28 17:22 60.47900 3.82567 28290 ft 404 kts 298°
2026-04-28 17:23 60.50092 3.71983 29054 ft 409 kts 298°
2026-04-28 17:23 60.51191 3.66623 29426 ft 412 kts 298°
2026-04-28 17:23 60.52300 3.61239 29781 ft 414 kts 298°
2026-04-28 17:23 60.53404 3.55904 30140 ft 416 kts 298°
2026-04-28 17:24 60.54533 3.50468 30483 ft 418 kts 298°
2026-04-28 17:24 60.55666 3.45009 30794 ft 420 kts 298°
2026-04-28 17:24 60.56806 3.39518 31084 ft 422 kts 298°
2026-04-28 17:24 60.57944 3.34018 31445 ft 421 kts 298°
2026-04-28 17:25 60.59076 3.28525 31884 ft 419 kts 298°
2026-04-28 17:25 60.61319 3.17597 32668 ft 417 kts 298°
2026-04-28 17:25 60.62436 3.12138 33042 ft 416 kts 298°
2026-04-28 17:26 60.63545 3.06702 33391 ft 415 kts 298°
2026-04-28 17:26 60.64648 3.01280 33760 ft 414 kts 298°
2026-04-28 17:26 60.65748 2.95862 34109 ft 413 kts 298°
2026-04-28 17:26 60.66832 2.90509 34441 ft 412 kts 298°
2026-04-28 17:27 60.67923 2.85107 34736 ft 412 kts 298°
2026-04-28 17:27 60.69012 2.79698 34998 ft 412 kts 298°
2026-04-28 17:27 60.70099 2.74289 35233 ft 412 kts 298°
2026-04-28 17:27 60.71183 2.68879 35434 ft 411 kts 298°
2026-04-28 17:28 60.72264 2.63470 35681 ft 411 kts 298°
2026-04-28 17:28 60.74048 2.54501 36161 ft 408 kts 297°
2026-04-28 17:28 60.75114 2.49123 36406 ft 408 kts 297°
2026-04-28 17:29 60.76179 2.43738 36594 ft 408 kts 297°
2026-04-28 17:29 60.77239 2.38369 36809 ft 408 kts 297°
2026-04-28 17:29 60.78301 2.32973 37000 ft 408 kts 297°
2026-04-28 17:30 60.80412 2.22202 37399 ft 408 kts 297°
2026-04-28 17:30 60.82514 2.11413 37779 ft 407 kts 297°
2026-04-28 17:30 60.83564 2.06008 37962 ft 407 kts 297°
2026-04-28 17:31 60.84606 2.00624 38137 ft 406 kts 297°
2026-04-28 17:31 60.86665 1.89937 38485 ft 405 kts 297°
2026-04-28 17:32 60.89763 1.73764 38492 ft 405 kts 297°
2026-04-28 17:32 60.91812 1.62985 38492 ft 405 kts 296°
2026-04-28 17:33 60.93853 1.52197 38492 ft 405 kts 296°
2026-04-28 17:33 60.95543 1.43213 38492 ft 405 kts 296°
2026-04-28 17:34 60.97900 1.30620 38486 ft 406 kts 295°
2026-04-28 17:34 60.99924 1.19745 38486 ft 407 kts 295°
2026-04-28 17:35 61.01945 1.08814 38483 ft 407 kts 295°
2026-04-28 17:35 61.03957 0.97877 38491 ft 407 kts 295°
2026-04-28 17:36 61.05958 0.86936 38487 ft 407 kts 295°
2026-04-28 17:36 61.07945 0.76006 38484 ft 407 kts 295°
2026-04-28 17:37 61.09927 0.65041 38474 ft 407 kts 294°
2026-04-28 17:37 61.11893 0.54111 38479 ft 409 kts 294°
2026-04-28 17:38 61.13866 0.43072 38479 ft 409 kts 293°
2026-04-28 17:38 61.15828 0.32026 38478 ft 409 kts 293°
2026-04-28 17:39 61.17784 0.20955 38479 ft 409 kts 293°
2026-04-28 17:40 61.20704 0.04308 38479 ft 409 kts 293°
2026-04-28 17:40 61.22449 -0.06932 38472 ft 409 kts 288°
2026-04-28 17:41 61.23888 -0.18349 38471 ft 408 kts 287°
2026-04-28 17:41 61.25271 -0.29715 38474 ft 408 kts 287°
2026-04-28 17:42 61.26681 -0.41124 38476 ft 408 kts 287°
2026-04-28 17:42 61.28105 -0.52551 38473 ft 408 kts 287°
2026-04-28 17:43 61.29522 -0.63968 38465 ft 408 kts 287°
2026-04-28 17:43 61.30922 -0.75333 38468 ft 408 kts 287°
2026-04-28 17:44 61.32320 -0.86778 38470 ft 408 kts 287°
2026-04-28 17:44 61.33708 -0.98234 38473 ft 407 kts 287°
2026-04-28 17:45 61.35076 -1.09628 38462 ft 404 kts 287°
2026-04-28 17:45 61.36430 -1.20986 38462 ft 404 kts 287°
2026-04-28 17:46 61.37777 -1.32361 38463 ft 404 kts 287°
2026-04-28 17:46 61.39105 -1.43677 38453 ft 404 kts 286°
2026-04-28 17:47 61.40434 -1.55090 38462 ft 405 kts 285°
2026-04-28 17:47 61.41754 -1.66519 38460 ft 405 kts 285°
2026-04-28 17:48 61.43064 -1.77954 38453 ft 405 kts 285°
2026-04-28 17:48 61.44365 -1.89403 38451 ft 405 kts 285°
2026-04-28 17:49 61.45657 -2.00865 38452 ft 405 kts 285°
2026-04-28 17:49 61.46938 -2.12328 38429 ft 405 kts 284°
2026-04-28 17:50 61.48217 -2.23860 38449 ft 408 kts 284°
2026-04-28 17:50 61.49493 -2.35471 38456 ft 409 kts 284°
2026-04-28 17:51 61.50759 -2.47089 38451 ft 409 kts 284°
2026-04-28 17:51 61.52015 -2.58722 38434 ft 409 kts 284°
2026-04-28 17:52 61.53261 -2.70354 38449 ft 409 kts 284°
2026-04-28 17:52 61.55107 -2.87782 38437 ft 410 kts 283°
2026-04-28 17:53 61.56335 -2.99508 38217 ft 412 kts 283°
2026-04-28 17:53 61.56947 -3.05391 37567 ft 414 kts 283°
2026-04-28 17:53 61.57562 -3.11333 36751 ft 419 kts 283°
2026-04-28 17:54 61.58184 -3.17363 36002 ft 423 kts 283°
2026-04-28 17:54 61.58807 -3.23430 35373 ft 424 kts 283°
2026-04-28 17:54 61.59420 -3.29437 34745 ft 426 kts 283°
2026-04-28 17:54 61.60039 -3.35528 34131 ft 426 kts 283°
2026-04-28 17:55 61.60650 -3.41571 33673 ft 421 kts 283°
2026-04-28 17:55 61.61254 -3.47569 33191 ft 417 kts 283°
2026-04-28 17:55 61.61848 -3.53505 32731 ft 413 kts 282°
2026-04-28 17:55 61.62436 -3.59396 32265 ft 409 kts 282°
2026-04-28 17:56 61.63014 -3.65221 31804 ft 405 kts 282°
2026-04-28 17:56 61.63564 -3.70788 31362 ft 402 kts 282°
2026-04-28 17:56 61.64127 -3.76514 30891 ft 400 kts 282°
2026-04-28 17:56 61.64679 -3.82147 30430 ft 397 kts 282°
2026-04-28 17:57 61.65231 -3.87816 29906 ft 394 kts 282°
2026-04-28 17:57 61.65777 -3.93440 29461 ft 389 kts 282°
2026-04-28 17:57 61.66313 -3.98989 29000 ft 385 kts 282°
2026-04-28 17:57 61.66842 -4.04501 28542 ft 382 kts 282°
2026-04-28 17:58 61.67364 -4.09956 28083 ft 378 kts 282°
2026-04-28 17:58 61.67881 -4.15377 27621 ft 376 kts 282°
2026-04-28 17:58 61.68390 -4.20747 27169 ft 373 kts 281°
2026-04-28 17:58 61.68894 -4.26086 26714 ft 370 kts 281°
2026-04-28 17:59 61.69391 -4.31382 26271 ft 368 kts 281°
2026-04-28 17:59 61.69886 -4.36666 25822 ft 366 kts 281°
2026-04-28 17:59 61.70374 -4.41900 25379 ft 364 kts 281°
2026-04-28 17:59 61.70858 -4.47118 24933 ft 362 kts 281°
2026-04-28 18:00 61.71339 -4.52328 24488 ft 361 kts 281°
2026-04-28 18:00 61.71816 -4.57508 24031 ft 359 kts 281°
2026-04-28 18:00 61.72289 -4.62672 23517 ft 358 kts 281°
2026-04-28 18:00 61.72757 -4.67809 23060 ft 355 kts 281°
2026-04-28 18:01 61.73218 -4.72888 22621 ft 351 kts 281°
2026-04-28 18:01 61.73674 -4.77931 22191 ft 348 kts 281°
2026-04-28 18:01 61.74118 -4.82866 21759 ft 345 kts 281°
2026-04-28 18:01 61.74561 -4.87810 21325 ft 342 kts 280°
2026-04-28 18:02 61.74999 -4.92721 20887 ft 339 kts 280°
2026-04-28 18:02 61.75431 -4.97591 20463 ft 336 kts 280°
2026-04-28 18:02 61.75860 -5.02426 20035 ft 333 kts 279°
2026-04-28 18:02 61.76282 -5.07226 19604 ft 331 kts 279°
2026-04-28 18:03 61.76700 -5.11985 19184 ft 329 kts 279°
2026-04-28 18:03 61.77113 -5.16715 18758 ft 326 kts 279°
2026-04-28 18:03 61.77521 -5.21413 18305 ft 324 kts 279°
2026-04-28 18:03 61.77923 -5.26056 17886 ft 320 kts 279°
2026-04-28 18:04 61.78319 -5.30653 17482 ft 316 kts 279°
2026-04-28 18:04 61.78710 -5.35203 17071 ft 312 kts 279°
2026-04-28 18:04 61.79095 -5.39708 16662 ft 309 kts 278°
2026-04-28 18:04 61.79467 -5.44104 16260 ft 306 kts 278°
2026-04-28 18:05 61.79839 -5.48515 15868 ft 304 kts 278°
2026-04-28 18:05 61.80088 -5.51479 15599 ft 302 kts 278°
2026-04-28 18:05 61.80573 -5.57250 15086 ft 300 kts 278°
2026-04-28 18:05 61.80936 -5.61590 14699 ft 299 kts 278°
2026-04-28 18:06 61.81296 -5.65904 14294 ft 297 kts 278°
2026-04-28 18:06 61.81653 -5.70188 13890 ft 295 kts 278°
2026-04-28 18:06 61.82005 -5.74431 13503 ft 292 kts 277°
2026-04-28 18:06 61.82354 -5.78649 13121 ft 290 kts 277°
2026-04-28 18:07 61.82698 -5.82842 12741 ft 289 kts 277°
2026-04-28 18:07 61.83040 -5.87023 12362 ft 288 kts 277°
2026-04-28 18:07 61.83379 -5.91186 11976 ft 286 kts 277°
2026-04-28 18:07 61.83716 -5.95341 11596 ft 285 kts 277°
2026-04-28 18:08 61.84050 -5.99476 11218 ft 284 kts 277°
2026-04-28 18:08 61.84377 -6.03537 10847 ft 283 kts 277°
2026-04-28 18:08 61.84706 -6.07628 10473 ft 281 kts 277°
2026-04-28 18:08 61.85029 -6.11664 10291 ft 272 kts 277°
2026-04-28 18:09 61.85342 -6.15572 9957 ft 269 kts 277°
2026-04-28 18:09 61.85652 -6.19472 9589 ft 266 kts 277°
2026-04-28 18:09 61.85956 -6.23321 9251 ft 264 kts 277°
2026-04-28 18:09 61.86257 -6.27143 8912 ft 262 kts 277°
2026-04-28 18:10 61.86555 -6.30945 8571 ft 260 kts 276°
2026-04-28 18:10 61.86850 -6.34717 8241 ft 258 kts 276°
2026-04-28 18:10 61.87141 -6.38457 7912 ft 256 kts 276°
2026-04-28 18:10 61.87429 -6.42171 7584 ft 255 kts 276°
2026-04-28 18:11 61.87714 -6.45864 7258 ft 253 kts 276°
2026-04-28 18:11 61.87997 -6.49546 6937 ft 252 kts 276°
2026-04-28 18:11 61.88280 -6.53210 6598 ft 251 kts 275°
2026-04-28 18:11 61.88671 -6.56788 6332 ft 249 kts 286°
2026-04-28 18:12 61.89358 -6.60100 5974 ft 249 kts 291°
2026-04-28 18:12 61.90143 -6.63375 5486 ft 249 kts 292°
2026-04-28 18:12 61.90954 -6.66607 5140 ft 247 kts 293°
2026-04-28 18:12 61.91769 -6.69815 4808 ft 246 kts 293°
2026-04-28 18:13 61.92582 -6.73000 4485 ft 244 kts 293°
2026-04-28 18:13 61.93391 -6.76166 4253 ft 239 kts 293°
2026-04-28 18:13 61.93911 -6.78193 4145 ft 233 kts 293°
2026-04-28 18:13 61.94926 -6.82056 3991 ft 215 kts 295°
2026-04-28 18:14 61.95644 -6.84724 4006 ft 198 kts 292°
2026-04-28 18:14 61.96266 -6.87171 3998 ft 185 kts 291°
2026-04-28 18:14 61.96837 -6.89449 3964 ft 164 kts 290°
2026-04-28 18:14 61.97347 -6.91502 3995 ft 153 kts 290°
2026-04-28 18:15 61.97840 -6.93506 3994 ft 153 kts 289°
2026-04-28 18:15 61.98167 -6.94834 3994 ft 153 kts 290°
2026-04-28 18:15 61.98665 -6.96845 3942 ft 152 kts 290°
2026-04-28 18:15 61.99161 -6.98812 3740 ft 151 kts 290°
2026-04-28 18:16 61.99659 -7.00787 3487 ft 152 kts 290°
2026-04-28 18:16 62.00153 -7.02759 3321 ft 151 kts 289°
2026-04-28 18:16 62.00644 -7.04736 2972 ft 150 kts 289°
2026-04-28 18:16 62.01130 -7.06696 2710 ft 149 kts 289°
2026-04-28 18:17 62.01616 -7.08646 2471 ft 149 kts 289°
2026-04-28 18:17 62.02099 -7.10588 2228 ft 149 kts 289°
2026-04-28 18:17 62.02586 -7.12541 1992 ft 148 kts 289°
2026-04-28 18:17 62.03066 -7.14472 1754 ft 148 kts 289°
2026-04-28 18:18 62.03547 -7.16400 1490 ft 148 kts 289°
2026-04-28 18:18 62.04033 -7.18363 1302 ft 152 kts 290°
2026-04-28 18:18 62.04522 -7.20325 1028 ft 150 kts 292°
2026-04-28 18:18 62.04848 -7.21627 852 ft 146 kts 292°
2026-04-28 18:19 62.05474 -7.24151 546 ft 142 kts 292°
2026-04-28 18:19 62.05925 -7.25999 309 ft 138 kts 292°
2026-04-28 18:19 62.06319 -7.27580 294 ft 88 kts 299°
2026-04-28 18:19 62.06449 -7.28106 296 ft 17 kts 301°
2026-04-28 18:20 62.06537 -7.28091 298 ft 8 kts 20°
2026-04-28 18:20 62.06571 -7.28076 297 ft 3 kts
2026-04-28 18:20 62.06584 -7.28075 296 ft 1 kts
2026-04-28 18:20 62.06591 -7.28074 295 ft 0 kts
2026-04-28 18:21 62.06609 -7.28073 295 ft 4 kts
2026-04-28 18:21 62.06634 -7.28044 299 ft 5 kts 57°
2026-04-28 18:21 62.06643 -7.27974 295 ft 4 kts 60°
2026-04-28 18:21 62.06661 -7.27947 295 ft 3 kts 22°
2026-04-28 18:22 62.06680 -7.27927 296 ft 3 kts 27°
2026-04-28 18:22 62.06685 -7.27922 296 ft 0 kts 27°